Regional Weather Roundup
Issued by NWS Kansas City/Pleasant Hill, MO

Home | Current Version | Previous Version | Graphics & Text | Print | Product List | Glossary Off
Versions: 1 2 3 4 5 6 7 8 9 10 11 12 13 14 15 16 17 18 19 20 21 22 23 24 25 26 27 28 29 30 31 32 33 34 35 36 37 38 39 40 41 42 43 44 45 46 47 48 49 50

000
ASUS43 KEAX 260410
RWREAX

WEATHER ROUNDUP FOR EASTERN KANSAS AND NORTHWEST MISSOURI
NATIONAL WEATHER SERVICE KANSAS CITY/PLEASANT HILL MO
1100 PM CDT SAT APR 25 2015

KSZ040-057-103>105-MOZ028-029-037-043-260500-
...KANSAS CITY METROPOLITAN AREA...

CITY           SKY/WX    TMP DP  RH WIND       PRES   REMARKS
K.C. INTL      CLOUDY    48  48 100 N8        29.80R
K.C. DOWNTOWN  CLOUDY    51  47  86 N8        29.80R FOG
LEES SUMMIT    CLOUDY    49  48  97 N10       29.80R FOG
OLATHE - IXD   CLOUDY    49  47  93 N10       29.80R
OLATHE - OJC   CLOUDY    50  47  89 N9        29.79R
LAWRENCE       CLOUDY    50  46  86 NE5       29.81R

$$

MOZ001>008-011>017-020>025-030>033-038>040-044>046-053-054-260500-
...NORTHERN AND CENTRAL MISSOURI...

CITY           SKY/WX    TMP DP  RH WIND       PRES   REMARKS
ST. JOSEPH     CLOUDY    49  47  93 NE7       29.82R
MOSBY          CLOUDY    50  48  93 NE7       29.81R
WARRENSBURG    CLOUDY    50  48  93 N8        29.79R FOG
WHITEMAN AFB   NOT AVBL
CLINTON        CLOUDY    54  52  94 N12       29.77R FOG
SEDALIA        LGT RAIN  52  49  89 N10       29.79R
WARSAW         NOT AVBL
MARSHALL       CLOUDY    52  50  93 NE12      29.81R
CHILLICOTHE      N/A     50  45  83 NE12G20   29.82R
MOBERLY        CLOUDY    48  45  87 NE15      29.80R
KIRKSVILLE     CLOUDY    47  45  93 NE14      29.82R

$$

MOZ041-047>049-056>058-063>065-088>090-097-260500-
...EASTERN AND SOUTHERN MISSOURI...

CITY           SKY/WX    TMP DP  RH WIND       PRES   REMARKS
ST. LOUIS INTL CLOUDY    51  47  86 N10G20    29.74R FOG
SPIRIT OF STL  LGT RAIN  50  48  93 NE13      29.73R FOG
COLUMBIA       CLOUDY    50  48  93 NE15      29.76R
JEFFERSON CITY CLOUDY    52  49  89 N7        29.75R FOG
MEXICO         CLOUDY   N/A N/A N/A N12       29.77R HAZE
HANNIBAL       CLOUDY    50  45  81 NE8       29.80R
ROLLA          CLOUDY    54  52  93 NE9       29.70R
LEBANON        CLOUDY    55  54  94 N3        29.73R
OSAGE BEACH    CLOUDY    55  52  88 N8        29.74R
SPRINGFIELD    CLOUDY    57  52  83 N13       29.72R
BRANSON        CLEAR     59  55  88 NW10      29.72R
NEVADA         CLOUDY    54  50  87 N9        29.77R
JOPLIN         MOCLDY    58  54  86 N8        29.74R
WEST PLAINS    CLEAR     62  52  69 NW6       29.68R

$$

IAZ060-094-KSZ022-034>040-054-083-096-NEZ052-066-093-260500-
...KANSAS...SOUTHEAST NEBRASKA AND IOWA...

CITY           SKY/WX    TMP DP  RH WIND       PRES   REMARKS
TOPEKA         CLOUDY    50  46  86 N7        29.82R
MANHATTAN      CLOUDY    50  47  89 NE10      29.82R
EMPORIA        CLOUDY    51  48  89 N10       29.80R
CHANUTE        CLOUDY    56  52  86 N10       29.77R
WICHITA        PTCLDY    57  52  83 NE20      29.75R
OMAHA          CLOUDY    51  43  74 NE12      29.88R
LINCOLN        CLOUDY    50  45  83 NE9       29.88R
FALLS CITY     CLOUDY    49  46  90 NE7       29.84R
LAMONI         CLOUDY    48  43  82 NE14      29.84R
DES MOINES     CLOUDY    49  39  68 NE13      29.89R

$$



USA.gov is the U.S. government's official web portal to all federal, state and local government web resources and services.